Home > Weather > Linden > Past weeks

Flag for Guyana Past Weather in Linden, Guyana — Yesterday and Last 2 Weeks

Now
70 °F

Partly sunny.


Feels Like: 70 °F
Forecast: 72 / 87 °F
Wind: No wind

Location: Georgetown/Cheddi Jagan International Airport

Current Time: Jul 28, 2016 at 6:40:18 AM

Latest Report: Jul 28, 2016 at 6:00 AM


Visibility: N/A

Pressure: 29.92 "Hg

Humidity: 100%

Dew Point: 70 °F

Location of LindenLocation

Past Weather in Linden — Graph

°F

Linden Temperature Yesterday

Maximum temperature yesterday: 81 °F (at 9:00 AM)
Minimum temperature yesterday: 72 °F (at 10:00 PM)
Average temperature yesterday: 76 °F

High & Low Weather Summary for the Past Weeks

 TemperatureHumidityPressure
High91 °F (Jul 21, 2:00 PM)100% (Jul 14, 4:30 AM)29.98 "Hg (Jul 14, 4:30 AM)
Low70 °F (Jul 28, 3:00 AM)56% (Jul 22, 12:00 PM)29.77 "Hg (Jul 15, 3:00 PM)
Average79 °F89%29.91 "Hg
* Reported Jul 13 5:00 AM — Jul 28 5:00 AM, Linden, Weather by CustomWeather, © 2016

Note: Actual official high and low records may vary slightly from our data, if they occured in-between our weather recording intervals... More about our weather records

Advertising

Linden Weather History for the Previous 24 Hours

Scroll right to see more
 ConditionsComfort  
Time TempWeatherWind HumidityBarometerVisibility
5:00 AM
Thu, Jul 28
70 °FPassing clouds.5 mph100%29.89 "Hg5 mi
3:00 AM70 °FFog.5 mph100%29.89 "Hg0 mi
1:00 AM72 °FFog.5 mph100%29.92 "Hg0 mi
12:00 AM72 °FPassing clouds.5 mph100%29.92 "Hg4 mi
11:00 PM
Wed, Jul 27
72 °FFog.5 mph100%29.92 "Hg1 mi
10:00 PM72 °FPassing clouds.5 mph100%29.95 "Hg4 mi
9:00 PM73 °FPassing clouds.5 mph100%29.92 "Hg6 mi
8:00 PM73 °FPassing clouds.No wind100%29.89 "HgN/A
7:00 PM75 °FPassing clouds.No wind94%29.89 "HgN/A
6:00 PM75 °FPartly sunny.5 mph94%29.86 "HgN/A
5:00 PM77 °FPartly sunny.9 mph89%29.86 "HgN/A
4:00 PM75 °FBroken clouds.7 mph94%29.86 "Hg6 mi
3:00 PM73 °FThunderstorms. Mostly cloudy.5 mph100%29.89 "Hg4 mi
2:00 PM77 °FThunderstorms. Partly sunny.7 mph94%29.92 "Hg4 mi
1:00 PM77 °FThunderstorms. Broken clouds.7 mph94%29.92 "Hg5 mi
12:00 PM79 °FThunderstorms. Broken clouds.No wind89%29.95 "Hg5 mi
11:00 AM79 °FThunderstorms. Partly sunny.9 mph89%29.95 "Hg5 mi
10:00 AM81 °FSprinkles. Partly sunny.2 mph89%29.95 "Hg6 mi
9:00 AM81 °FBroken clouds.5 mph89%29.98 "HgN/A
8:00 AM77 °FPartly sunny.5 mph94%29.98 "HgN/A
7:00 AM73 °FPartly sunny.5 mph100%29.95 "Hg6 mi
6:00 AM73 °FSprinkles. Partly sunny.No wind100%29.92 "Hg6 mi
Weather by CustomWeather, © 2016

See weather overviewHow to use our weather pages